Wind_Speed
5 4 3 3 3 3 3 3 4 3 3 3 3 3 3 3 3 4 3 3 3 3 2 2 2 1 1 1 2 4 5 6 6 6 7 7 7 7 7 7 7 7 7
5 5 5 4 4 4 4 4 4 4 4 4 4 4 4 4 4 4 3 3 3 3 3 3 3 3 2 2 3 4 5 6 7 7 7 7 7 8 8 8 7 7 8
5 6 6 5 4 5 5 5 5 6 6 6 6 5 5 5 5 5 4 4 5 4 4 4 4 4 4 3 4 5 6 7 8 8 8 8 8 9 9 9 8 8 8
6 6 5 6 6 6 6 6 7 7 7 7 7 7 6 6 6 6 5 5 6 5 5 5 5 5 5 5 5 5 6 7 9 9 9 9 9 9 10 10 9 9 9
6 6 6 6 7 7 7 7 8 8 9 9 9 8 7 7 8 7 7 7 6 6 6 6 6 6 6 6 6 7 7 8 9 10 10 10 10 10 11 10 10 10 9
6 6 6 7 8 7 7 7 7 8 9 9 9 9 9 8 9 8 8 8 8 7 7 7 7 7 6 7 7 8 9 9 9 10 10 11 11 11 11 11 11 11 11
6 6 6 7 7 7 7 6 6 7 8 8 9 9 9 9 9 9 9 8 8 8 8 8 8 7 7 7 7 8 9 10 10 10 10 11 11 12 12 12 12 11 11
6 7 7 7 6 6 6 6 6 6 7 9 9 9 9 9 9 9 9 9 9 9 9 9 9 8 8 8 8 8 8 9 10 10 11 12 11 12 12 12 12 12 13
7 7 7 7 7 7 6 6 6 6 6 7 8 9 9 9 9 9 9 9 9 9 9 9 9 9 9 9 9 9 8 9 10 10 11 12 12 12 12 12 12 12 13
6 6 7 7 7 7 6 6 7 6 6 7 8 8 9 9 8 9 9 9 9 9 9 9 9 9 9 9 9 9 9 9 10 10 11 11 12 12 12 13 13 13 14
7 7 7 7 7 7 7 7 7 7 7 7 7 8 9 8 9 9 9 9 9 9 9 9 9 10 10 10 10 10 10 10 10 11 12 12 12 12 12 13 14 14 14
7 7 7 8 7 7 7 7 8 7 7 7 7 8 8 8 9 9 9 9 10 10 10 10 10 10 10 11 11 11 11 11 11 11 12 13 13 13 13 13 14 14 14
8 8 8 9 8 8 8 8 8 8 8 7 7 8 8 9 9 10 10 10 10 10 11 11 11 11 11 11 11 11 11 11 12 12 13 13 14 14 14 14 14 14 15
9 9 9 9 9 8 9 9 9 10 9 8 9 9 10 10 10 11 11 11 11 11 12 12 12 12 12 13 12 12 12 12 12 12 12 13 14 15 15 16 15 15 15
10 10 9 9 9 9 9 10 10 10 10 10 11 11 11 11 11 12 12 12 12 13 13 13 13 13 13 13 13 14 14 14 13 13 13 14 14 15 15 15 16 16 16
11 11 11 11 10 10 10 10 10 11 11 11 12 12 12 12 12 12 12 13 13 14 14 14 14 14 15 14 15 15 15 15 15 15 15 15 15 15 15 16 16 16 16
12 12 11 11 11 11 11 11 12 12 12 12 13 12 12 12 12 12 13 13 14 14 15 15 15 16 15 15 15 16 16 16 16 16 16 16 16 16 16 17 17 16 16
12 13 12 12 12 12 13 13 13 13 12 12 13 13 13 13 13 13 13 13 14 15 15 16 16 16 16 16 15 16 16 17 17 17 17 17 17 17 17 17 17 16 16
12 13 13 13 13 14 14 14 14 13 13 13 13 13 13 14 14 14 14 14 14 14 15 15 15 16 16 16 16 16 17 17 18 18 17 17 17 17 17 17 16 16 16
13 13 13 14 14 14 14 15 15 14 14 13 13 14 14 15 15 15 15 15 14 14 14 14 15 15 16 17 16 16 16 16 17 17 18 18 18 18 18 17 17 17 17
13 13 13 14 14 15 15 15 15 15 15 15 14 15 15 15 15 15 15 15 15 15 15 14 14 15 16 17 17 17 17 17 17 17 17 18 18 19 19 18 18 17 18
13 13 13 14 14 15 15 15 15 15 16 15 15 15 15 16 16 16 16 16 16 16 16 15 15 16 16 17 18 18 18 19 18 18 18 18 19 19 19 19 18 18 17
13 13 13 14 14 14 14 15 15 15 16 16 16 16 16 16 17 17 17 17 17 17 17 17 17 17 17 18 18 19 19 20 20 20 19 20 19 19 19 19 18 18 17
13 13 13 14 13 13 14 14 15 15 16 16 16 16 16 17 17 17 18 18 17 17 17 18 18 18 19 19 19 19 19 20 20 21 21 21 21 21 20 20 19 19 19
13 13 14 14 14 13 13 14 14 15 15 15 16 16 16 16 17 17 18 18 18 18 18 19 19 19 19 19 19 20 20 20 20 20 21 21 21 22 21 20 20 20 20
13 13 13 13 14 14 14 15 15 15 15 15 16 16 17 17 17 18 18 18 18 18 18 19 20 20 21 21 21 20 20 21 21 20 21 21 21 21 21 20 20 19 20
Wind_Direction
204 205 210 223 231 227 229 238 246 237 232 227 215 207 201 209 210 212 208 208 211 214 214 221 237 222 208 189 177 189 199 206 212 208 207 214 220 222 223 226 227 231 236
212 216 222 236 241 243 244 247 246 241 228 220 218 219 217 220 220 225 221 220 223 227 230 237 243 241 229 220 217 217 214 216 217 217 220 225 226 225 226 232 232 235 239
221 226 230 241 248 247 252 256 255 249 237 226 225 226 227 227 230 236 249 238 236 237 240 245 249 248 238 229 228 228 231 228 224 225 226 229 234 233 233 236 236 237 240
226 231 235 238 247 249 250 254 257 253 244 237 233 231 237 241 242 246 253 251 247 246 245 249 249 248 245 240 239 240 239 233 224 226 231 233 237 238 237 237 238 239 242
233 237 239 240 251 255 254 256 257 252 247 243 239 239 244 248 249 249 250 254 255 254 248 253 253 250 250 250 250 251 245 237 232 231 233 235 240 240 240 240 241 241 242
240 241 243 246 252 256 261 266 263 255 250 247 241 244 247 249 248 247 249 251 252 256 254 252 253 252 251 254 255 254 250 246 237 236 236 239 242 243 242 242 242 244 245
246 246 244 247 252 258 262 265 264 250 244 246 245 245 246 245 246 246 247 250 251 255 255 255 251 252 253 255 257 259 257 251 250 244 242 244 242 243 244 243 243 247 248
252 255 256 254 256 261 262 260 256 252 250 248 248 248 248 249 250 251 248 251 253 253 253 254 253 252 248 252 257 261 262 255 252 251 248 246 245 245 246 246 244 248 251
258 260 261 261 261 265 266 264 259 253 250 250 249 250 251 251 252 253 252 253 252 253 254 254 253 252 250 251 255 258 259 256 252 254 252 246 244 244 246 245 245 250 254
257 258 258 258 258 262 265 264 263 263 262 258 255 250 249 251 249 250 253 256 256 256 255 256 254 255 252 255 254 253 255 256 255 253 254 250 249 247 245 246 247 251 254
258 258 259 258 259 262 262 264 267 273 270 265 256 248 246 248 251 255 254 254 256 257 258 260 260 259 257 256 254 253 255 256 256 254 258 256 253 251 250 251 250 251 252
256 257 259 257 258 260 262 264 265 270 273 267 259 252 250 253 257 257 256 255 256 258 260 262 263 258 259 258 252 251 254 256 257 258 258 257 254 253 252 254 254 254 253
254 252 254 256 260 261 262 266 268 267 272 263 257 259 258 260 258 257 259 260 259 261 262 264 265 263 262 262 258 256 256 256 258 261 259 258 255 253 255 257 256 258 256
256 251 250 255 261 264 265 268 268 270 273 268 264 265 265 263 260 259 261 262 263 265 266 267 265 266 263 261 259 259 259 259 260 261 260 257 256 256 258 258 258 259 260
259 257 254 255 259 264 268 270 271 274 274 271 269 267 266 266 263 261 261 265 267 268 269 269 267 265 265 260 258 258 258 260 262 263 264 263 263 260 259 261 260 261 260
260 261 263 266 268 269 270 271 273 274 272 273 272 269 266 267 266 264 265 267 269 269 270 270 267 266 265 265 261 259 259 260 262 264 265 264 265 264 263 260 260 258 258
259 259 262 265 267 270 273 276 275 275 273 272 272 268 267 266 267 268 268 269 270 272 273 271 268 267 266 268 267 264 263 263 263 265 265 264 264 265 266 266 263 260 260
258 257 260 263 266 268 270 273 276 278 277 275 273 270 270 269 268 268 269 270 271 274 273 271 270 267 266 266 268 267 266 263 262 262 262 263 264 264 266 267 267 265 262
259 260 261 264 267 270 272 272 275 277 278 278 274 270 272 272 271 270 270 273 275 276 275 273 270 269 268 266 266 266 267 267 264 261 262 263 263 264 265 266 267 267 264
262 264 266 267 270 272 274 275 275 275 275 277 275 271 273 273 275 273 272 274 275 276 277 276 274 271 268 267 267 266 264 266 265 262 261 262 263 264 266 267 268 267 266
265 267 268 270 271 273 275 276 276 275 276 276 275 274 272 272 274 276 275 274 274 274 276 276 274 273 270 269 268 267 265 264 268 265 262 263 263 264 266 267 268 268 267
267 268 269 271 271 272 273 274 274 274 275 275 276 277 275 272 273 274 277 276 275 276 276 275 274 274 273 271 268 266 264 264 264 266 264 264 264 264 266 266 268 269 269
266 268 270 272 272 271 271 272 273 273 274 275 275 275 275 274 275 277 276 277 277 277 275 274 273 274 274 273 270 266 264 265 265 265 265 264 264 264 264 265 266 266 265
266 270 274 273 271 270 271 272 273 273 274 275 275 276 276 276 277 279 278 278 276 276 275 274 273 274 275 274 272 270 267 266 266 266 265 265 263 263 264 264 264 264 263
267 273 276 274 273 272 274 276 276 275 275 275 275 276 277 278 280 280 280 279 277 277 277 276 275 275 275 275 274 272 269 267 267 267 265 264 264 263 263 264 264 263 262
267 271 275 274 275 275 277 279 279 278 277 276 276 278 279 281 282 280 280 280 280 278 277 277 276 275 275 275 274 273 271 269 268 268 265 263 263 263 262 263 265 263 261
Height
5874 5874 5874 5874 5874 5874 5874 5874 5874 5874 5874 5874 5874 5874 5874 5874 5874 5874 5874 5874 5874 5874 5873 5873 5873 5872 5871 5870 5869 5869 5870 5872 5873 5874 5875 5875 5876 5876 5877 5877 5877 5877 5878
5873 5873 5873 5873 5873 5873 5873 5873 5873 5873 5873 5873 5873 5873 5873 5874 5874 5874 5873 5873 5873 5873 5873 5873 5872 5872 5872 5871 5871 5871 5871 5872 5873 5874 5874 5875 5875 5875 5876 5876 5876 5877 5877
5872 5872 5872 5872 5872 5872 5872 5872 5872 5872 5872 5872 5872 5873 5873 5873 5873 5873 5873 5873 5872 5872 5872 5872 5872 5872 5872 5871 5871 5871 5871 5871 5872 5873 5873 5874 5874 5874 5875 5875 5875 5875 5876
5871 5871 5871 5871 5871 5871 5871 5871 5871 5871 5871 5871 5871 5872 5872 5872 5872 5872 5872 5872 5872 5871 5871 5871 5871 5871 5871 5871 5871 5870 5870 5870 5870 5871 5872 5872 5873 5873 5874 5874 5874 5874 5874
5869 5870 5870 5870 5870 5870 5869 5869 5868 5868 5868 5869 5870 5870 5870 5871 5871 5871 5871 5871 5870 5870 5870 5870 5870 5870 5870 5870 5870 5869 5868 5869 5869 5870 5870 5871 5871 5872 5872 5872 5872 5873 5873
5868 5868 5868 5868 5868 5868 5867 5866 5865 5865 5866 5867 5867 5868 5869 5869 5869 5870 5869 5869 5869 5869 5869 5869 5869 5868 5868 5868 5868 5868 5868 5868 5868 5868 5869 5869 5870 5870 5870 5870 5871 5871 5871
5867 5867 5867 5867 5867 5866 5865 5864 5863 5862 5863 5865 5865 5866 5867 5867 5867 5868 5868 5868 5868 5868 5867 5867 5867 5867 5867 5867 5867 5867 5866 5866 5866 5867 5867 5868 5868 5868 5868 5869 5869 5869 5869
5865 5865 5865 5865 5865 5865 5864 5863 5862 5861 5862 5863 5864 5864 5865 5865 5866 5866 5866 5866 5866 5866 5866 5866 5866 5865 5865 5865 5865 5865 5865 5865 5865 5865 5865 5866 5866 5866 5866 5866 5867 5867 5867
5864 5864 5864 5864 5864 5863 5863 5862 5861 5861 5861 5861 5861 5862 5863 5863 5864 5864 5864 5864 5864 5864 5864 5864 5864 5864 5864 5864 5863 5863 5863 5863 5863 5863 5863 5863 5864 5864 5864 5864 5864 5864 5865
5862 5862 5862 5862 5862 5862 5862 5861 5861 5860 5859 5858 5858 5859 5860 5861 5861 5862 5862 5862 5862 5862 5862 5862 5862 5862 5862 5862 5862 5862 5861 5861 5861 5861 5861 5861 5861 5861 5862 5862 5862 5862 5862
5861 5861 5861 5861 5860 5860 5860 5860 5860 5859 5858 5856 5855 5856 5857 5859 5859 5860 5860 5861 5861 5861 5861 5860 5860 5860 5860 5860 5860 5860 5859 5859 5859 5859 5859 5859 5859 5859 5859 5859 5859 5859 5859
5859 5859 5859 5859 5859 5859 5859 5859 5858 5858 5857 5855 5854 5854 5856 5857 5857 5858 5858 5858 5859 5859 5859 5858 5858 5858 5858 5858 5857 5857 5857 5857 5857 5857 5856 5856 5857 5857 5857 5856 5856 5856 5856
5857 5857 5857 5857 5857 5857 5858 5857 5857 5857 5856 5855 5854 5854 5855 5855 5856 5856 5856 5856 5856 5856 5856 5856 5856 5856 5856 5855 5855 5855 5855 5854 5854 5854 5854 5854 5854 5854 5853 5853 5853 5853 5853
5856 5856 5855 5855 5856 5856 5856 5856 5855 5855 5855 5855 5854 5854 5854 5854 5854 5854 5854 5854 5854 5854 5854 5853 5853 5853 5853 5853 5852 5852 5852 5852 5852 5851 5851 5851 5851 5851 5850 5850 5850 5850 5850
5853 5853 5854 5854 5853 5854 5854 5854 5854 5853 5853 5853 5853 5852 5852 5852 5852 5852 5851 5851 5851 5851 5851 5851 5851 5850 5850 5850 5850 5849 5849 5849 5849 5848 5848 5848 5847 5847 5847 5847 5847 5847 5847
5851 5851 5851 5851 5851 5851 5852 5852 5852 5851 5851 5851 5850 5850 5850 5849 5849 5849 5849 5849 5848 5848 5848 5848 5847 5847 5847 5847 5846 5846 5846 5846 5845 5845 5845 5845 5844 5844 5843 5844 5843 5843 5843
5849 5849 5849 5849 5849 5849 5849 5849 5849 5849 5848 5848 5848 5847 5847 5847 5846 5846 5846 5846 5845 5845 5845 5844 5844 5844 5843 5843 5843 5843 5843 5842 5842 5842 5842 5841 5841 5841 5840 5840 5840 5840 5840
5847 5847 5847 5847 5847 5847 5847 5847 5846 5846 5845 5845 5845 5844 5844 5844 5844 5843 5843 5843 5842 5841 5841 5841 5840 5840 5839 5839 5839 5839 5839 5838 5838 5838 5838 5838 5837 5837 5837 5837 5836 5836 5836
5844 5844 5844 5845 5845 5845 5844 5844 5843 5843 5842 5842 5842 5841 5841 5841 5840 5840 5840 5839 5839 5838 5837 5837 5836 5836 5836 5836 5835 5835 5835 5835 5834 5834 5834 5834 5834 5833 5833 5833 5833 5833 5832
5841 5841 5841 5842 5842 5841 5841 5840 5840 5840 5839 5839 5838 5838 5838 5837 5837 5837 5836 5836 5835 5835 5834 5833 5833 5832 5832 5832 5832 5831 5831 5831 5830 5830 5830 5830 5830 5829 5829 5829 5829 5829 5829
5838 5838 5838 5838 5838 5838 5837 5837 5836 5836 5836 5835 5835 5835 5834 5834 5833 5833 5832 5832 5831 5831 5830 5830 5829 5829 5828 5828 5828 5828 5827 5827 5827 5826 5826 5826 5826 5825 5825 5825 5825 5825 5824
5835 5835 5835 5835 5834 5834 5834 5833 5833 5832 5832 5832 5831 5831 5830 5830 5830 5829 5829 5828 5827 5827 5826 5826 5825 5825 5824 5823 5823 5823 5823 5823 5823 5822 5822 5822 5821 5821 5821 5821 5821 5821 5820
5831 5831 5831 5831 5831 5830 5830 5829 5829 5829 5828 5828 5827 5827 5826 5826 5826 5825 5824 5824 5823 5823 5822 5822 5821 5820 5820 5819 5819 5819 5819 5818 5818 5818 5817 5817 5817 5817 5817 5817 5816 5816 5816
5828 5828 5827 5827 5827 5826 5826 5825 5825 5824 5824 5824 5823 5823 5822 5822 5821 5821 5820 5819 5819 5818 5817 5817 5816 5816 5815 5814 5814 5813 5813 5813 5813 5812 5813 5812 5812 5812 5812 5812 5812 5812 5811
5824 5824 5823 5823 5823 5822 5822 5821 5821 5820 5820 5820 5819 5819 5818 5818 5817 5816 5815 5814 5814 5813 5812 5812 5811 5811 5810 5809 5809 5808 5808 5807 5807 5807 5807 5807 5807 5807 5807 5807 5807 5807 5807
5820 5820 5819 5819 5819 5818 5818 5818 5817 5816 5816 5815 5815 5814 5814 5813 5812 5811 5810 5810 5809 5808 5807 5807 5806 5806 5805 5804 5803 5803 5802 5802 5801 5801 5801 5801 5801 5801 5801 5802 5802 5801 5801